Kezdőlap
METAR-TAF:

METAR-TAF

Repülőterek :

Illinois Valley Regional Airport (Walter A. Duncan Field)

Peru-LaSalle, Illinois, Amerikai Egyesült Államok

földrajzi szélesség: 41-21-07N, földrajzi hosszúság: 089-09-11W, magasság: 199 m

Jelenlegi meteorológiai megfigyelések

A jelentés 28 perccel ezelõtt készült, 11:35 UTC
Északkeleti szél 5 kt
Hőmérséklet 13°C
Páratartalom 58%
Légköri nyomás 1016 hPa
Látótávolság: 16.1 km
Derült ég

METAR: KVYS 171135Z AUTO 05005KT 10SM CLR 13/05 A3001 RMK AO2 T01260053

Idő: 07:03 (12:03 UTC)


TAF: hiányzik

Meteorológiai megfigyelések és előrejelzések több, mint 4000 repülőtéren (METAR és TAF jelentéseket).

A térképen piros és sárga pontok jelzik az elérhető meteorológiai állomásokat.

Mozgassa az egeret a pont fölött, hogy megjelenjen az állomás neve.

Azután kattintson az időjárási megfigyelések és előrejelzések megtekintéséhez.

A térkép megváltoztatása: kattintson a fekete keresztel jelölt zöld gombra ráközelítéshez, a vonallal jelölt zöld gombra távolításhoz, vagy a zöld nyilakra a szomszédos térképek eléréséhez.


METAR-TAF: